Time,TemperatureF,DewpointF,PressureIn,WindDirection,WindDirectionDegrees,WindSpeedMPH,WindSpeedGustMPH,Humidity,HourlyPrecipIn,Conditions,Clouds,dailyrainin,SoftwareType,DateUTC
2013-03-30 00:00:00,52.9,43.8,30.27,North,0,0.0,0.0,71,0.00,,,0.00,WUHU216HW,2013-03-30 04:00:00,
2013-03-30 00:05:00,53.1,44.0,30.27,North,0,0.0,0.0,71,0.00,,,0.00,WUHU216HW,2013-03-30 04:05:00,
2013-03-30 00:10:00,53.3,44.5,30.26,North,0,0.0,0.0,72,0.00,,,0.00,WUHU216HW,2013-03-30 04:10:00,
2013-03-30 00:15:00,53.1,44.3,30.27,North,0,0.0,0.0,72,0.00,,,0.00,WUHU216HW,2013-03-30 04:15:00,
2013-03-30 00:20:00,53.3,44.1,30.27,North,0,0.0,0.0,71,0.00,,,0.00,WUHU216HW,2013-03-30 04:20:00,
2013-03-30 00:26:00,53.3,44.1,30.26,North,0,0.0,0.0,71,0.00,,,0.00,WUHU216HW,2013-03-30 04:26:00,
2013-03-30 00:31:00,53.3,44.1,30.26,North,0,0.0,0.0,71,0.00,,,0.00,WUHU216HW,2013-03-30 04:31:00,
2013-03-30 00:36:00,53.3,44.5,30.26,North,0,0.0,0.0,72,0.00,,,0.00,WUHU216HW,2013-03-30 04:36:00,
2013-03-30 00:41:00,53.3,44.5,30.26,North,0,0.0,0.0,72,0.00,,,0.00,WUHU216HW,2013-03-30 04:41:00,
2013-03-30 00:46:00,53.5,44.3,30.26,North,0,0.0,0.0,71,0.00,,,0.00,WUHU216HW,2013-03-30 04:46:00,
2013-03-30 00:52:00,53.6,44.5,30.26,North,0,0.0,0.0,71,0.00,,,0.00,WUHU216HW,2013-03-30 04:52:00,
2013-03-30 00:57:00,53.6,44.5,30.26,North,0,0.0,0.0,71,0.00,,,0.00,WUHU216HW,2013-03-30 04:57:00,
2013-03-30 01:02:00,53.6,44.5,30.25,North,0,0.0,0.0,71,0.00,,,0.00,WUHU216HW,2013-03-30 05:02:00,
2013-03-30 01:07:00,53.6,44.5,30.26,North,0,0.0,0.0,71,0.00,,,0.00,WUHU216HW,2013-03-30 05:07:00,
2013-03-30 01:12:00,53.8,44.7,30.26,North,0,0.0,0.0,71,0.00,,,0.00,WUHU216HW,2013-03-30 05:12:00,
2013-03-30 01:17:00,53.8,44.7,30.25,North,0,0.0,0.0,71,0.00,,,0.00,WUHU216HW,2013-03-30 05:17:00,
2013-03-30 01:22:00,54.0,44.8,30.25,North,0,0.0,0.0,71,0.00,,,0.00,WUHU216HW,2013-03-30 05:22:00,
2013-03-30 01:27:00,54.0,44.8,30.25,North,0,0.0,0.0,71,0.00,,,0.00,WUHU216HW,2013-03-30 05:27:00,
2013-03-30 01:32:00,54.0,44.5,30.25,North,0,0.0,0.0,70,0.00,,,0.00,WUHU216HW,2013-03-30 05:32:00,
2013-03-30 01:37:00,54.2,44.6,30.25,North,0,0.0,0.0,70,0.00,,,0.00,WUHU216HW,2013-03-30 05:37:00,
2013-03-30 01:42:00,54.4,44.5,30.25,North,0,0.0,0.0,69,0.00,,,0.00,WUHU216HW,2013-03-30 05:42:00,
2013-03-30 01:47:00,54.4,44.5,30.25,North,0,0.0,0.0,69,0.00,,,0.00,WUHU216HW,2013-03-30 05:47:00,
2013-03-30 01:52:00,54.4,44.0,30.25,North,0,0.0,0.0,68,0.00,,,0.00,WUHU216HW,2013-03-30 05:52:00,
2013-03-30 01:57:00,54.4,43.7,30.25,North,0,0.0,0.0,67,0.00,,,0.00,WUHU216HW,2013-03-30 05:57:00,
2013-03-30 02:02:00,54.4,43.2,30.25,North,0,0.0,0.0,66,0.00,,,0.00,WUHU216HW,2013-03-30 06:02:00,
2013-03-30 02:08:00,54.5,43.4,30.25,North,0,0.0,0.0,66,0.00,,,0.00,WUHU216HW,2013-03-30 06:08:00,
2013-03-30 02:13:00,54.7,42.8,30.25,North,0,0.0,0.0,64,0.00,,,0.00,WUHU216HW,2013-03-30 06:13:00,
2013-03-30 02:18:00,54.9,42.1,30.25,North,0,0.0,0.0,62,0.00,,,0.00,WUHU216HW,2013-03-30 06:18:00,
2013-03-30 02:23:00,55.1,42.3,30.25,North,0,0.0,0.0,62,0.00,,,0.00,WUHU216HW,2013-03-30 06:23:00,
2013-03-30 02:28:00,55.3,42.0,30.25,North,0,0.0,0.0,61,0.00,,,0.00,WUHU216HW,2013-03-30 06:28:00,
2013-03-30 02:33:00,55.3,41.6,30.25,North,0,0.0,0.0,60,0.00,,,0.00,WUHU216HW,2013-03-30 06:33:00,
2013-03-30 02:38:00,55.4,41.8,30.25,North,0,0.0,0.0,60,0.00,,,0.00,WUHU216HW,2013-03-30 06:38:00,
2013-03-30 02:43:00,55.3,41.6,30.25,North,0,0.0,0.0,60,0.00,,,0.00,WUHU216HW,2013-03-30 06:43:00,
2013-03-30 02:48:00,55.3,41.6,30.25,North,0,0.0,0.0,60,0.00,,,0.00,WUHU216HW,2013-03-30 06:48:00,
2013-03-30 02:53:00,55.3,41.6,30.25,North,0,0.0,0.0,60,0.00,,,0.00,WUHU216HW,2013-03-30 06:53:00,
2013-03-30 02:58:00,55.3,41.6,30.25,North,0,0.0,0.0,60,0.00,,,0.00,WUHU216HW,2013-03-30 06:58:00,
2013-03-30 03:03:00,55.3,42.0,30.24,North,0,0.0,0.0,61,0.00,,,0.00,WUHU216HW,2013-03-30 07:03:00,
2013-03-30 03:08:00,55.1,41.9,30.24,North,0,0.0,0.0,61,0.00,,,0.00,WUHU216HW,2013-03-30 07:08:00,
2013-03-30 03:13:00,55.1,42.3,30.24,North,0,0.0,0.0,62,0.00,,,0.00,WUHU216HW,2013-03-30 07:13:00,
2013-03-30 03:18:00,54.9,42.5,30.23,North,0,0.0,0.0,63,0.00,,,0.00,WUHU216HW,2013-03-30 07:18:00,
2013-03-30 03:23:00,54.9,42.9,30.23,North,0,0.0,0.0,64,0.00,,,0.00,WUHU216HW,2013-03-30 07:23:00,
2013-03-30 03:29:00,54.7,42.8,30.24,North,0,0.0,0.0,64,0.00,,,0.00,WUHU216HW,2013-03-30 07:29:00,
2013-03-30 03:34:00,54.7,43.1,30.23,North,0,0.0,0.0,65,0.00,,,0.00,WUHU216HW,2013-03-30 07:34:00,
2013-03-30 03:39:00,54.7,43.1,30.23,North,0,0.0,0.0,65,0.00,,,0.00,WUHU216HW,2013-03-30 07:39:00,
2013-03-30 03:44:00,54.5,43.4,30.23,North,0,0.0,0.0,66,0.00,,,0.00,WUHU216HW,2013-03-30 07:44:00,
2013-03-30 03:49:00,54.5,43.4,30.23,North,0,0.0,0.0,66,0.00,,,0.00,WUHU216HW,2013-03-30 07:49:00,
2013-03-30 03:54:00,54.4,43.7,30.22,North,0,0.0,0.0,67,0.00,,,0.00,WUHU216HW,2013-03-30 07:54:00,
2013-03-30 03:59:00,54.5,43.8,30.23,North,0,0.0,0.0,67,0.00,,,0.00,WUHU216HW,2013-03-30 07:59:00,
2013-03-30 04:04:00,54.4,43.7,30.23,North,0,0.0,0.0,67,0.00,,,0.00,WUHU216HW,2013-03-30 08:04:00,
2013-03-30 04:09:00,54.4,44.0,30.23,North,0,0.0,0.0,68,0.00,,,0.00,WUHU216HW,2013-03-30 08:09:00,
2013-03-30 04:14:00,54.4,44.0,30.23,North,0,0.0,0.0,68,0.00,,,0.00,WUHU216HW,2013-03-30 08:14:00,
2013-03-30 04:19:00,54.4,44.0,30.22,North,0,0.0,0.0,68,0.00,,,0.00,WUHU216HW,2013-03-30 08:19:00,
2013-03-30 04:24:00,54.4,44.0,30.22,North,0,0.0,0.0,68,0.00,,,0.00,WUHU216HW,2013-03-30 08:24:00,
2013-03-30 04:29:00,54.2,44.3,30.22,North,0,0.0,0.0,69,0.00,,,0.00,WUHU216HW,2013-03-30 08:29:00,
2013-03-30 04:34:00,54.0,44.1,30.22,North,0,0.0,0.0,69,0.00,,,0.00,WUHU216HW,2013-03-30 08:34:00,
2013-03-30 04:40:00,54.0,44.1,30.22,North,0,0.0,0.0,69,0.00,,,0.00,WUHU216HW,2013-03-30 08:40:00,
2013-03-30 04:45:00,53.8,43.9,30.22,North,0,0.0,0.0,69,0.00,,,0.00,WUHU216HW,2013-03-30 08:45:00,
2013-03-30 04:50:00,53.6,43.8,30.23,North,0,0.0,0.0,69,0.00,,,0.00,WUHU216HW,2013-03-30 08:50:00,
2013-03-30 04:55:00,53.6,43.8,30.23,North,0,0.0,0.0,69,0.00,,,0.00,WUHU216HW,2013-03-30 08:55:00,
2013-03-30 05:00:00,53.6,43.3,30.23,North,0,0.0,0.0,68,0.00,,,0.00,WUHU216HW,2013-03-30 09:00:00,
2013-03-30 05:05:00,53.6,43.8,30.23,North,0,0.0,0.0,69,0.00,,,0.00,WUHU216HW,2013-03-30 09:05:00,
2013-03-30 05:10:00,53.5,43.1,30.23,North,0,0.0,0.0,68,0.00,,,0.00,WUHU216HW,2013-03-30 09:10:00,
2013-03-30 05:15:00,53.1,43.7,30.23,North,0,0.0,0.0,70,0.00,,,0.00,WUHU216HW,2013-03-30 09:15:00,
2013-03-30 05:20:00,52.7,43.3,30.24,North,0,0.0,0.0,70,0.00,,,0.00,WUHU216HW,2013-03-30 09:20:00,
2013-03-30 05:25:00,52.4,42.9,30.24,North,0,0.0,0.0,70,0.00,,,0.00,WUHU216HW,2013-03-30 09:25:00,
2013-03-30 05:30:00,52.2,43.1,30.24,North,0,0.0,0.0,71,0.00,,,0.00,WUHU216HW,2013-03-30 09:30:00,
2013-03-30 05:34:00,52.0,43.0,30.24,North,0,0.0,0.0,71,0.00,,,0.00,WUHU216HW,2013-03-30 09:34:00,
2013-03-30 05:39:00,51.7,42.3,30.23,North,0,0.0,0.0,70,0.00,,,0.00,WUHU216HW,2013-03-30 09:39:00,
2013-03-30 05:44:00,51.5,42.5,30.24,North,0,0.0,0.0,71,0.00,,,0.00,WUHU216HW,2013-03-30 09:44:00,
2013-03-30 05:49:00,51.1,42.5,30.24,North,0,0.0,0.0,72,0.00,,,0.00,WUHU216HW,2013-03-30 09:49:00,
2013-03-30 05:54:00,51.1,42.1,30.24,North,0,0.0,0.0,71,0.00,,,0.00,WUHU216HW,2013-03-30 09:54:00,
2013-03-30 05:59:00,51.1,42.5,30.24,North,0,0.0,0.0,72,0.00,,,0.00,WUHU216HW,2013-03-30 09:59:00,
2013-03-30 06:04:00,50.9,42.3,30.24,North,0,0.0,0.0,72,0.00,,,0.00,WUHU216HW,2013-03-30 10:04:00,
2013-03-30 06:09:00,50.9,42.3,30.24,North,0,0.0,0.0,72,0.00,,,0.00,WUHU216HW,2013-03-30 10:09:00,
2013-03-30 06:15:00,50.8,42.1,30.24,North,0,0.0,0.0,72,0.00,,,0.00,WUHU216HW,2013-03-30 10:15:00,
2013-03-30 06:20:00,50.8,42.1,30.24,North,0,0.0,0.0,72,0.00,,,0.00,WUHU216HW,2013-03-30 10:20:00,
2013-03-30 06:25:00,50.6,42.0,30.25,North,0,0.0,0.0,72,0.01,,,0.01,WUHU216HW,2013-03-30 10:25:00,
2013-03-30 06:30:00,50.4,41.8,30.25,North,0,0.0,0.0,72,0.01,,,0.01,WUHU216HW,2013-03-30 10:30:00,
2013-03-30 06:35:00,50.2,41.6,30.25,North,0,0.0,0.0,72,0.01,,,0.01,WUHU216HW,2013-03-30 10:35:00,
2013-03-30 06:40:00,50.2,41.2,30.25,North,0,0.0,0.0,71,0.01,,,0.01,WUHU216HW,2013-03-30 10:40:00,
2013-03-30 06:45:00,50.2,41.2,30.25,North,0,0.0,0.0,71,0.01,,,0.01,WUHU216HW,2013-03-30 10:45:00,
2013-03-30 06:50:00,50.2,41.2,30.26,North,0,0.0,0.0,71,0.01,,,0.01,WUHU216HW,2013-03-30 10:50:00,
2013-03-30 06:55:00,50.4,41.4,30.26,North,0,0.0,0.0,71,0.01,,,0.01,WUHU216HW,2013-03-30 10:55:00,
2013-03-30 07:00:00,50.4,41.4,30.26,North,0,0.0,0.0,71,0.01,,,0.01,WUHU216HW,2013-03-30 11:00:00,
2013-03-30 07:05:00,50.6,41.2,30.26,North,0,0.0,0.0,70,0.01,,,0.01,WUHU216HW,2013-03-30 11:05:00,
2013-03-30 07:10:00,50.8,41.4,30.26,North,0,0.0,0.0,70,0.01,,,0.01,WUHU216HW,2013-03-30 11:10:00,
2013-03-30 07:15:00,50.9,41.6,30.26,North,0,0.0,0.0,70,0.01,,,0.01,WUHU216HW,2013-03-30 11:15:00,
2013-03-30 07:20:00,50.9,41.6,30.26,North,0,0.0,0.0,70,0.00,,,0.01,WUHU216HW,2013-03-30 11:20:00,
2013-03-30 07:25:00,51.1,41.8,30.26,North,0,0.0,0.0,70,0.00,,,0.01,WUHU216HW,2013-03-30 11:25:00,
2013-03-30 07:30:00,51.3,41.9,30.26,North,0,0.0,0.0,70,0.00,,,0.01,WUHU216HW,2013-03-30 11:30:00,
2013-03-30 07:35:00,51.5,41.7,30.27,North,0,0.0,0.0,69,0.00,,,0.01,WUHU216HW,2013-03-30 11:35:00,
2013-03-30 07:40:00,51.5,42.1,30.26,North,0,0.0,0.0,70,0.00,,,0.01,WUHU216HW,2013-03-30 11:40:00,
2013-03-30 07:45:00,51.5,41.7,30.27,North,0,0.0,0.0,69,0.00,,,0.01,WUHU216HW,2013-03-30 11:45:00,
2013-03-30 07:51:00,51.5,41.3,30.26,North,0,0.0,0.0,68,0.00,,,0.01,WUHU216HW,2013-03-30 11:51:00,
2013-03-30 07:56:00,51.5,41.3,30.27,North,0,0.0,0.0,68,0.00,,,0.01,WUHU216HW,2013-03-30 11:56:00,
2013-03-30 08:01:00,51.8,41.7,30.27,North,0,0.0,0.0,68,0.00,,,0.01,WUHU216HW,2013-03-30 12:01:00,
2013-03-30 08:06:00,52.0,42.2,30.27,North,0,0.0,0.0,69,0.00,,,0.01,WUHU216HW,2013-03-30 12:06:00,
2013-03-30 08:11:00,52.2,42.4,30.27,North,0,0.0,0.0,69,0.00,,,0.01,WUHU216HW,2013-03-30 12:11:00,
2013-03-30 08:17:00,52.2,42.4,30.27,North,0,0.0,0.0,69,0.00,,,0.01,WUHU216HW,2013-03-30 12:17:00,
2013-03-30 08:22:00,52.4,42.6,30.27,North,0,0.0,0.0,69,0.00,,,0.01,WUHU216HW,2013-03-30 12:22:00,
2013-03-30 08:27:00,52.6,42.8,30.28,North,0,0.0,0.0,69,0.00,,,0.01,WUHU216HW,2013-03-30 12:27:00,
2013-03-30 08:32:00,52.9,43.0,30.27,North,0,0.0,0.0,69,0.00,,,0.01,WUHU216HW,2013-03-30 12:32:00,
2013-03-30 08:37:00,52.9,43.0,30.27,North,0,0.0,0.0,69,0.00,,,0.01,WUHU216HW,2013-03-30 12:37:00,
2013-03-30 08:42:00,52.9,43.0,30.27,North,0,0.0,0.0,69,0.00,,,0.01,WUHU216HW,2013-03-30 12:42:00,
2013-03-30 08:47:00,52.9,43.0,30.28,North,0,0.0,0.0,69,0.00,,,0.01,WUHU216HW,2013-03-30 12:47:00,
2013-03-30 08:52:00,53.1,43.2,30.28,North,0,0.0,0.0,69,0.00,,,0.01,WUHU216HW,2013-03-30 12:52:00,
2013-03-30 08:57:00,53.3,43.0,30.28,North,0,0.0,0.0,68,0.00,,,0.01,WUHU216HW,2013-03-30 12:57:00,
2013-03-30 09:03:00,53.3,43.4,30.28,North,0,0.0,0.0,69,0.00,,,0.01,WUHU216HW,2013-03-30 13:03:00,
2013-03-30 09:08:00,53.3,43.0,30.28,North,0,0.0,0.0,68,0.00,,,0.01,WUHU216HW,2013-03-30 13:08:00,
2013-03-30 09:13:00,53.3,43.4,30.28,North,0,0.0,0.0,69,0.00,,,0.01,WUHU216HW,2013-03-30 13:13:00,
2013-03-30 09:18:00,53.5,43.6,30.28,North,0,0.0,0.0,69,0.00,,,0.01,WUHU216HW,2013-03-30 13:18:00,
2013-03-30 09:23:00,53.6,43.3,30.27,North,0,0.0,0.0,68,0.00,,,0.01,WUHU216HW,2013-03-30 13:23:00,
2013-03-30 09:28:00,54.0,44.1,30.27,North,0,0.0,0.0,69,0.00,,,0.01,WUHU216HW,2013-03-30 13:28:00,
2013-03-30 09:33:00,54.0,44.1,30.27,North,0,0.0,0.0,69,0.00,,,0.01,WUHU216HW,2013-03-30 13:33:00,
2013-03-30 09:38:00,53.8,43.9,30.27,North,0,0.0,0.0,69,0.00,,,0.01,WUHU216HW,2013-03-30 13:38:00,
2013-03-30 09:43:00,54.0,44.1,30.27,North,0,0.0,0.0,69,0.00,,,0.01,WUHU216HW,2013-03-30 13:43:00,
2013-03-30 09:48:00,53.8,43.5,30.27,North,0,0.0,0.0,68,0.00,,,0.01,WUHU216HW,2013-03-30 13:48:00,
2013-03-30 09:53:00,54.0,43.7,30.27,North,0,0.0,0.0,68,0.00,,,0.01,WUHU216HW,2013-03-30 13:53:00,
2013-03-30 09:58:00,54.0,43.7,30.27,North,0,0.0,0.0,68,0.00,,,0.01,WUHU216HW,2013-03-30 13:58:00,
2013-03-30 10:04:00,53.6,43.3,30.27,North,0,0.0,0.0,68,0.00,,,0.01,WUHU216HW,2013-03-30 14:04:00,
2013-03-30 10:09:00,53.6,43.3,30.27,North,0,0.0,0.0,68,0.00,,,0.01,WUHU216HW,2013-03-30 14:09:00,
2013-03-30 10:14:00,53.6,42.9,30.26,North,0,0.0,0.0,67,0.00,,,0.01,WUHU216HW,2013-03-30 14:14:00,
2013-03-30 10:19:00,53.6,42.9,30.26,North,0,0.0,0.0,67,0.00,,,0.01,WUHU216HW,2013-03-30 14:19:00,
2013-03-30 10:24:00,53.5,42.8,30.26,North,0,0.0,0.0,67,0.00,,,0.01,WUHU216HW,2013-03-30 14:24:00,
2013-03-30 10:29:00,53.6,42.9,30.25,North,0,0.0,0.0,67,0.00,,,0.01,WUHU216HW,2013-03-30 14:29:00,
2013-03-30 10:34:00,53.6,42.9,30.25,North,0,0.0,0.0,67,0.00,,,0.01,WUHU216HW,2013-03-30 14:34:00,
2013-03-30 10:39:00,53.8,43.1,30.26,North,0,0.0,0.0,67,0.00,,,0.01,WUHU216HW,2013-03-30 14:39:00,
2013-03-30 10:44:00,54.2,43.8,30.26,North,0,0.0,0.0,68,0.00,,,0.01,WUHU216HW,2013-03-30 14:44:00,
2013-03-30 10:49:00,54.4,43.7,30.26,North,0,0.0,0.0,67,0.00,,,0.01,WUHU216HW,2013-03-30 14:49:00,
2013-03-30 10:54:00,55.1,44.7,30.26,North,0,0.0,0.0,68,0.00,,,0.01,WUHU216HW,2013-03-30 14:54:00,
2013-03-30 10:59:00,55.1,44.7,30.26,North,0,0.0,0.0,68,0.00,,,0.01,WUHU216HW,2013-03-30 14:59:00,
2013-03-30 11:04:00,55.1,44.7,30.26,North,0,0.0,0.0,68,0.00,,,0.01,WUHU216HW,2013-03-30 15:04:00,
2013-03-30 11:09:00,55.1,44.7,30.26,North,0,0.0,0.0,68,0.00,,,0.01,WUHU216HW,2013-03-30 15:09:00,
2013-03-30 11:15:00,55.4,45.1,30.25,North,0,0.0,0.0,68,0.00,,,0.01,WUHU216HW,2013-03-30 15:15:00,
2013-03-30 11:20:00,55.6,45.3,30.25,North,0,0.0,0.0,68,0.00,,,0.01,WUHU216HW,2013-03-30 15:20:00,
2013-03-30 11:25:00,55.4,45.1,30.25,North,0,0.0,0.0,68,0.00,,,0.01,WUHU216HW,2013-03-30 15:25:00,
2013-03-30 11:30:00,56.0,45.5,30.25,North,0,0.0,0.0,68,0.00,,,0.01,WUHU216HW,2013-03-30 15:30:00,
2013-03-30 11:35:00,56.9,46.5,30.24,North,0,0.0,0.0,68,0.00,,,0.01,WUHU216HW,2013-03-30 15:35:00,
2013-03-30 11:40:00,57.2,46.4,30.25,North,0,0.0,0.0,67,0.00,,,0.01,WUHU216HW,2013-03-30 15:40:00,
2013-03-30 11:45:00,57.2,46.7,30.25,North,0,0.0,0.0,68,0.00,,,0.01,WUHU216HW,2013-03-30 15:45:00,
2013-03-30 11:50:00,57.1,46.2,30.25,North,0,0.0,0.0,67,0.00,,,0.01,WUHU216HW,2013-03-30 15:50:00,
2013-03-30 11:55:00,56.9,46.0,30.25,North,0,0.0,0.0,67,0.00,,,0.01,WUHU216HW,2013-03-30 15:55:00,
2013-03-30 12:00:00,57.2,46.7,30.24,North,0,0.0,0.0,68,0.00,,,0.01,WUHU216HW,2013-03-30 16:00:00,
2013-03-30 12:05:00,57.2,46.4,30.24,North,0,0.0,0.0,67,0.00,,,0.01,WUHU216HW,2013-03-30 16:05:00,
2013-03-30 12:10:00,58.0,47.4,30.24,North,0,0.0,0.0,68,0.00,,,0.01,WUHU216HW,2013-03-30 16:10:00,
2013-03-30 12:15:00,58.7,47.7,30.24,North,0,0.0,0.0,67,0.00,,,0.01,WUHU216HW,2013-03-30 16:15:00,
2013-03-30 12:20:00,59.4,48.4,30.24,North,0,0.0,0.0,67,0.00,,,0.01,WUHU216HW,2013-03-30 16:20:00,
2013-03-30 12:26:00,59.0,48.1,30.24,North,0,0.0,0.0,67,0.00,,,0.01,WUHU216HW,2013-03-30 16:26:00,
2013-03-30 12:31:00,58.3,47.8,30.24,North,0,0.0,0.0,68,0.00,,,0.01,WUHU216HW,2013-03-30 16:31:00,
2013-03-30 12:36:00,58.1,47.6,30.24,North,0,0.0,0.0,68,0.00,,,0.01,WUHU216HW,2013-03-30 16:36:00,
2013-03-30 12:41:00,58.3,47.8,30.24,North,0,0.0,0.0,68,0.00,,,0.01,WUHU216HW,2013-03-30 16:41:00,
2013-03-30 12:47:00,59.0,48.5,30.24,North,0,0.0,0.0,68,0.00,,,0.01,WUHU216HW,2013-03-30 16:47:00,
2013-03-30 12:52:00,59.2,48.7,30.24,North,0,0.0,0.0,68,0.00,,,0.01,WUHU216HW,2013-03-30 16:52:00,
2013-03-30 12:57:00,58.7,48.2,30.24,North,0,0.0,0.0,68,0.00,,,0.01,WUHU216HW,2013-03-30 16:57:00,
2013-03-30 13:02:00,58.1,47.6,30.24,North,0,0.0,0.0,68,0.00,,,0.01,WUHU216HW,2013-03-30 17:02:00,
2013-03-30 13:07:00,58.0,47.4,30.23,North,0,0.0,0.0,68,0.00,,,0.01,WUHU216HW,2013-03-30 17:07:00,
2013-03-30 13:12:00,57.4,47.4,30.23,North,0,0.0,0.0,69,0.00,,,0.01,WUHU216HW,2013-03-30 17:12:00,
2013-03-30 13:18:00,57.2,47.2,30.22,North,0,0.0,0.0,69,0.00,,,0.01,WUHU216HW,2013-03-30 17:18:00,
2013-03-30 13:23:00,56.9,46.8,30.22,North,0,0.0,0.0,69,0.00,,,0.01,WUHU216HW,2013-03-30 17:23:00,
2013-03-30 13:28:00,57.1,47.0,30.22,North,0,0.0,0.0,69,0.00,,,0.01,WUHU216HW,2013-03-30 17:28:00,
2013-03-30 13:33:00,56.5,46.4,30.22,North,0,0.0,0.0,69,0.00,,,0.01,WUHU216HW,2013-03-30 17:33:00,
2013-03-30 13:38:00,56.9,46.8,30.21,North,0,0.0,0.0,69,0.00,,,0.01,WUHU216HW,2013-03-30 17:38:00,
2013-03-30 13:43:00,56.7,46.6,30.21,North,0,0.0,0.0,69,0.00,,,0.01,WUHU216HW,2013-03-30 17:43:00,
2013-03-30 13:48:00,56.5,46.1,30.21,North,0,0.0,0.0,68,0.00,,,0.01,WUHU216HW,2013-03-30 17:48:00,
2013-03-30 13:53:00,56.9,46.5,30.20,North,0,0.0,0.0,68,0.00,,,0.01,WUHU216HW,2013-03-30 17:53:00,
2013-03-30 13:58:00,57.8,47.3,30.20,North,0,0.0,0.0,68,0.00,,,0.01,WUHU216HW,2013-03-30 17:58:00,
2013-03-30 14:03:00,58.1,47.6,30.21,North,0,0.0,0.0,68,0.00,,,0.01,WUHU216HW,2013-03-30 18:03:00,
2013-03-30 14:08:00,58.7,48.2,30.21,North,0,0.0,0.0,68,0.00,,,0.01,WUHU216HW,2013-03-30 18:08:00,
2013-03-30 14:13:00,58.5,48.0,30.21,North,0,0.0,0.0,68,0.00,,,0.01,WUHU216HW,2013-03-30 18:13:00,
2013-03-30 14:19:00,58.1,47.6,30.20,North,0,0.0,0.0,68,0.00,,,0.01,WUHU216HW,2013-03-30 18:19:00,
2013-03-30 14:24:00,59.0,48.5,30.20,North,0,0.0,0.0,68,0.00,,,0.01,WUHU216HW,2013-03-30 18:24:00,
2013-03-30 14:29:00,59.8,49.2,30.20,North,0,0.0,0.0,68,0.00,,,0.01,WUHU216HW,2013-03-30 18:29:00,
2013-03-30 14:34:00,60.1,49.1,30.19,North,0,0.0,0.0,67,0.00,,,0.01,WUHU216HW,2013-03-30 18:34:00,
2013-03-30 14:39:00,60.7,49.7,30.20,North,0,0.0,0.0,67,0.00,,,0.01,WUHU216HW,2013-03-30 18:39:00,
2013-03-30 14:44:00,62.1,51.4,30.20,North,0,0.0,0.0,68,0.00,,,0.01,WUHU216HW,2013-03-30 18:44:00,
2013-03-30 14:49:00,63.0,51.8,30.19,North,0,0.0,0.0,67,0.00,,,0.01,WUHU216HW,2013-03-30 18:49:00,
2013-03-30 14:54:00,63.9,52.8,30.19,North,0,0.0,0.0,67,0.00,,,0.01,WUHU216HW,2013-03-30 18:54:00,
2013-03-30 14:59:00,64.6,53.0,30.19,North,0,0.0,0.0,66,0.00,,,0.01,WUHU216HW,2013-03-30 18:59:00,
2013-03-30 15:04:00,64.8,52.8,30.19,North,0,0.0,0.0,65,0.00,,,0.01,WUHU216HW,2013-03-30 19:04:00,
2013-03-30 15:09:00,64.3,52.2,30.19,North,0,0.0,0.0,65,0.00,,,0.01,WUHU216HW,2013-03-30 19:09:00,
2013-03-30 15:14:00,64.8,52.8,30.19,North,0,0.0,0.0,65,0.00,,,0.01,WUHU216HW,2013-03-30 19:14:00,
2013-03-30 15:19:00,64.6,52.6,30.18,North,0,0.0,0.0,65,0.00,,,0.01,WUHU216HW,2013-03-30 19:19:00,
2013-03-30 15:24:00,64.8,52.8,30.18,North,0,0.0,0.0,65,0.00,,,0.01,WUHU216HW,2013-03-30 19:24:00,
2013-03-30 15:29:00,65.7,53.6,30.18,North,0,0.0,0.0,65,0.00,,,0.01,WUHU216HW,2013-03-30 19:29:00,
2013-03-30 15:34:00,66.6,54.0,30.17,North,0,0.0,0.0,64,0.00,,,0.01,WUHU216HW,2013-03-30 19:34:00,
2013-03-30 15:39:00,67.1,53.6,30.18,North,0,0.0,0.0,62,0.00,,,0.01,WUHU216HW,2013-03-30 19:39:00,
2013-03-30 15:44:00,67.0,53.6,30.18,North,0,0.0,0.0,62,0.00,,,0.01,WUHU216HW,2013-03-30 19:44:00,
2013-03-30 15:49:00,66.8,52.9,30.18,North,0,0.0,0.0,61,0.00,,,0.01,WUHU216HW,2013-03-30 19:49:00,
2013-03-30 15:55:00,67.1,53.3,30.18,North,0,0.0,0.0,61,0.00,,,0.01,WUHU216HW,2013-03-30 19:55:00,
2013-03-30 16:00:00,67.0,53.1,30.18,North,0,0.0,0.0,61,0.00,,,0.01,WUHU216HW,2013-03-30 20:00:00,
2013-03-30 16:05:00,67.0,53.1,30.18,North,0,0.0,0.0,61,0.00,,,0.01,WUHU216HW,2013-03-30 20:05:00,
2013-03-30 16:10:00,67.0,52.7,30.18,North,0,0.0,0.0,60,0.00,,,0.01,WUHU216HW,2013-03-30 20:10:00,
2013-03-30 16:15:00,66.8,52.5,30.18,North,0,0.0,0.0,60,0.00,,,0.01,WUHU216HW,2013-03-30 20:15:00,
2013-03-30 16:20:00,66.8,52.5,30.17,North,0,0.0,0.0,60,0.00,,,0.01,WUHU216HW,2013-03-30 20:20:00,
2013-03-30 16:25:00,67.0,52.7,30.18,North,0,0.0,0.0,60,0.00,,,0.01,WUHU216HW,2013-03-30 20:25:00,
2013-03-30 16:30:00,67.3,53.0,30.17,North,0,0.0,0.0,60,0.00,,,0.01,WUHU216HW,2013-03-30 20:30:00,
2013-03-30 16:35:00,67.0,52.7,30.17,North,0,0.0,0.0,60,0.00,,,0.01,WUHU216HW,2013-03-30 20:35:00,
2013-03-30 16:40:00,67.3,53.0,30.17,North,0,0.0,0.0,60,0.00,,,0.01,WUHU216HW,2013-03-30 20:40:00,
2013-03-30 16:45:00,67.1,52.8,30.17,North,0,0.0,0.0,60,0.00,,,0.01,WUHU216HW,2013-03-30 20:45:00,
2013-03-30 16:50:00,67.0,52.7,30.17,North,0,0.0,0.0,60,0.00,,,0.01,WUHU216HW,2013-03-30 20:50:00,
2013-03-30 16:55:00,66.4,52.2,30.17,North,0,0.0,0.0,60,0.00,,,0.01,WUHU216HW,2013-03-30 20:55:00,
2013-03-30 17:00:00,66.4,52.2,30.17,North,0,0.0,0.0,60,0.00,,,0.01,WUHU216HW,2013-03-30 21:00:00,
2013-03-30 17:06:00,66.2,52.5,30.17,North,0,0.0,0.0,61,0.00,,,0.01,WUHU216HW,2013-03-30 21:06:00,
2013-03-30 17:10:00,66.1,52.3,30.17,North,0,0.0,0.0,61,0.00,,,0.01,WUHU216HW,2013-03-30 21:10:00,
2013-03-30 17:15:00,66.1,52.3,30.17,North,0,0.0,0.0,61,0.00,,,0.01,WUHU216HW,2013-03-30 21:15:00,
2013-03-30 17:39:00,64.8,51.5,30.16,North,0,0.0,0.0,62,0.00,,,0.01,WUHU216HW,2013-03-30 21:39:00,
2013-03-30 17:44:00,64.4,51.5,30.16,North,0,0.0,0.0,63,0.00,,,0.01,WUHU216HW,2013-03-30 21:44:00,
2013-03-30 17:49:00,64.6,52.1,30.16,North,0,0.0,0.0,64,0.00,,,0.01,WUHU216HW,2013-03-30 21:49:00,
2013-03-30 17:54:00,64.8,52.3,30.16,North,0,0.0,0.0,64,0.00,,,0.01,WUHU216HW,2013-03-30 21:54:00,
2013-03-30 17:59:00,64.1,51.2,30.16,North,0,0.0,0.0,63,0.00,,,0.01,WUHU216HW,2013-03-30 21:59:00,
2013-03-30 18:04:00,63.4,51.0,30.15,North,0,0.0,0.0,64,0.00,,,0.01,WUHU216HW,2013-03-30 22:04:00,
2013-03-30 18:09:00,63.0,51.0,30.16,North,0,0.0,0.0,65,0.00,,,0.01,WUHU216HW,2013-03-30 22:09:00,
2013-03-30 18:15:00,62.5,51.0,30.16,North,0,0.0,0.0,66,0.00,,,0.01,WUHU216HW,2013-03-30 22:15:00,
2013-03-30 18:20:00,62.1,50.6,30.16,North,0,0.0,0.0,66,0.00,,,0.01,WUHU216HW,2013-03-30 22:20:00,
2013-03-30 18:25:00,61.6,50.5,30.16,North,0,0.0,0.0,67,0.00,,,0.01,WUHU216HW,2013-03-30 22:25:00,
2013-03-30 18:30:00,60.5,49.2,30.16,North,0,0.0,0.0,66,0.00,,,0.01,WUHU216HW,2013-03-30 22:30:00,
2013-03-30 18:35:00,59.9,49.0,30.16,North,0,0.0,0.0,67,0.00,,,0.01,WUHU216HW,2013-03-30 22:35:00,
2013-03-30 18:40:00,59.4,48.9,30.16,North,0,0.0,0.0,68,0.00,,,0.01,WUHU216HW,2013-03-30 22:40:00,
2013-03-30 18:45:00,59.4,48.9,30.16,North,0,0.0,0.0,68,0.00,,,0.01,WUHU216HW,2013-03-30 22:45:00,
2013-03-30 18:50:00,59.4,48.9,30.16,North,0,0.0,0.0,68,0.00,,,0.01,WUHU216HW,2013-03-30 22:50:00,
2013-03-30 18:55:00,59.2,48.7,30.15,North,0,0.0,0.0,68,0.00,,,0.01,WUHU216HW,2013-03-30 22:55:00,
2013-03-30 19:00:00,58.7,48.5,30.15,North,0,0.0,0.0,69,0.00,,,0.01,WUHU216HW,2013-03-30 23:00:00,
2013-03-30 19:05:00,58.3,48.2,30.15,North,0,0.0,0.0,69,0.00,,,0.01,WUHU216HW,2013-03-30 23:05:00,
2013-03-30 19:10:00,57.8,47.7,30.15,North,0,0.0,0.0,69,0.00,,,0.01,WUHU216HW,2013-03-30 23:10:00,
2013-03-30 19:15:00,57.2,47.2,30.16,North,0,0.0,0.0,69,0.00,,,0.01,WUHU216HW,2013-03-30 23:15:00,
2013-03-30 19:21:00,57.1,47.0,30.16,North,0,0.0,0.0,69,0.00,,,0.01,WUHU216HW,2013-03-30 23:21:00,
2013-03-30 19:26:00,56.5,46.4,30.15,North,0,0.0,0.0,69,0.00,,,0.01,WUHU216HW,2013-03-30 23:26:00,
2013-03-30 19:31:00,56.0,46.4,30.15,North,0,0.0,0.0,70,0.00,,,0.01,WUHU216HW,2013-03-30 23:31:00,
2013-03-30 19:36:00,55.4,45.9,30.15,North,0,0.0,0.0,70,0.00,,,0.01,WUHU216HW,2013-03-30 23:36:00,
2013-03-30 19:41:00,55.3,45.7,30.15,North,0,0.0,0.0,70,0.00,,,0.01,WUHU216HW,2013-03-30 23:41:00,
2013-03-30 19:46:00,55.1,45.9,30.15,North,0,0.0,0.0,71,0.00,,,0.01,WUHU216HW,2013-03-30 23:46:00,
2013-03-30 19:51:00,54.7,45.6,30.16,North,0,0.0,0.0,71,0.00,,,0.01,WUHU216HW,2013-03-30 23:51:00,
2013-03-30 19:56:00,54.7,45.6,30.15,North,0,0.0,0.0,71,0.00,,,0.01,WUHU216HW,2013-03-30 23:56:00,
2013-03-30 20:01:00,54.9,44.9,30.15,North,0,0.0,0.0,69,0.00,,,0.01,WUHU216HW,2013-03-31 00:01:00,
2013-03-30 20:06:00,54.9,44.6,30.15,North,0,0.0,0.0,68,0.00,,,0.01,WUHU216HW,2013-03-31 00:06:00,
2013-03-30 20:12:00,54.7,44.7,30.15,North,0,0.0,0.0,69,0.00,,,0.01,WUHU216HW,2013-03-31 00:12:00,
2013-03-30 20:17:00,54.7,44.7,30.16,North,0,0.0,0.0,69,0.00,,,0.01,WUHU216HW,2013-03-31 00:17:00,
2013-03-30 20:22:00,54.4,44.5,30.16,North,0,0.0,0.0,69,0.00,,,0.01,WUHU216HW,2013-03-31 00:22:00,
2013-03-30 20:27:00,54.4,44.0,30.16,North,0,0.0,0.0,68,0.00,,,0.01,WUHU216HW,2013-03-31 00:27:00,
2013-03-30 20:32:00,54.4,43.7,30.16,North,0,0.0,0.0,67,0.00,,,0.01,WUHU216HW,2013-03-31 00:32:00,
2013-03-30 20:37:00,54.2,43.8,30.16,North,0,0.0,0.0,68,0.00,,,0.01,WUHU216HW,2013-03-31 00:37:00,
2013-03-30 20:42:00,54.0,43.3,30.17,North,0,0.0,0.0,67,0.00,,,0.01,WUHU216HW,2013-03-31 00:42:00,
2013-03-30 20:47:00,54.2,43.5,30.17,North,0,0.0,0.0,67,0.00,,,0.01,WUHU216HW,2013-03-31 00:47:00,
2013-03-30 20:52:00,54.0,43.3,30.16,North,0,0.0,0.0,67,0.00,,,0.01,WUHU216HW,2013-03-31 00:52:00,
2013-03-30 20:57:00,54.2,43.5,30.16,North,0,0.0,0.0,67,0.00,,,0.01,WUHU216HW,2013-03-31 00:57:00,
2013-03-30 21:03:00,54.2,43.5,30.17,North,0,0.0,0.0,67,0.00,,,0.01,WUHU216HW,2013-03-31 01:03:00,
2013-03-30 21:08:00,54.2,43.5,30.16,North,0,0.0,0.0,67,0.00,,,0.01,WUHU216HW,2013-03-31 01:08:00,
2013-03-30 21:13:00,54.2,43.0,30.16,North,0,0.0,0.0,66,0.00,,,0.01,WUHU216HW,2013-03-31 01:13:00,
2013-03-30 21:18:00,54.0,42.5,30.16,North,0,0.0,0.0,65,0.00,,,0.01,WUHU216HW,2013-03-31 01:18:00,
2013-03-30 21:23:00,54.0,42.5,30.17,North,0,0.0,0.0,65,0.00,,,0.01,WUHU216HW,2013-03-31 01:23:00,
2013-03-30 21:28:00,54.0,42.0,30.17,North,0,0.0,0.0,64,0.00,,,0.01,WUHU216HW,2013-03-31 01:28:00,
2013-03-30 21:33:00,53.8,41.9,30.17,North,0,0.0,0.0,64,0.00,,,0.01,WUHU216HW,2013-03-31 01:33:00,
2013-03-30 21:38:00,53.8,41.9,30.17,North,0,0.0,0.0,64,0.00,,,0.01,WUHU216HW,2013-03-31 01:38:00,
2013-03-30 21:43:00,53.8,41.9,30.17,North,0,0.0,0.0,64,0.00,,,0.01,WUHU216HW,2013-03-31 01:43:00,
2013-03-30 21:48:00,53.8,41.9,30.17,North,0,0.0,0.0,64,0.00,,,0.01,WUHU216HW,2013-03-31 01:48:00,
2013-03-30 21:53:00,53.6,41.3,30.17,North,0,0.0,0.0,63,0.00,,,0.01,WUHU216HW,2013-03-31 01:53:00,
2013-03-30 21:58:00,53.5,40.8,30.17,North,0,0.0,0.0,62,0.00,,,0.01,WUHU216HW,2013-03-31 01:58:00,
2013-03-30 22:03:00,53.5,40.8,30.17,North,0,0.0,0.0,62,0.00,,,0.01,WUHU216HW,2013-03-31 02:03:00,
2013-03-30 22:08:00,53.6,41.0,30.17,North,0,0.0,0.0,62,0.00,,,0.01,WUHU216HW,2013-03-31 02:08:00,
2013-03-30 22:13:00,53.6,40.5,30.17,North,0,0.0,0.0,61,0.00,,,0.01,WUHU216HW,2013-03-31 02:13:00,
2013-03-30 22:18:00,53.6,40.5,30.17,North,0,0.0,0.0,61,0.00,,,0.01,WUHU216HW,2013-03-31 02:18:00,
2013-03-30 22:40:00,53.6,40.1,30.17,North,0,0.0,0.0,60,0.00,,,0.01,WUHU216HW,2013-03-31 02:40:00,
2013-03-30 22:45:00,53.6,39.7,30.17,North,0,0.0,0.0,59,0.00,,,0.01,WUHU216HW,2013-03-31 02:45:00,
2013-03-30 22:50:00,53.6,39.7,30.17,North,0,0.0,0.0,59,0.00,,,0.01,WUHU216HW,2013-03-31 02:50:00,
2013-03-30 22:55:00,53.6,39.7,30.17,North,0,0.0,0.0,59,0.00,,,0.01,WUHU216HW,2013-03-31 02:55:00,
2013-03-30 23:00:00,53.6,39.7,30.17,North,0,0.0,0.0,59,0.00,,,0.01,WUHU216HW,2013-03-31 03:00:00,
2013-03-30 23:05:00,53.6,39.3,30.16,North,0,0.0,0.0,58,0.00,,,0.01,WUHU216HW,2013-03-31 03:05:00,
2013-03-30 23:10:00,53.6,39.3,30.16,North,0,0.0,0.0,58,0.00,,,0.01,WUHU216HW,2013-03-31 03:10:00,
2013-03-30 23:15:00,53.6,39.3,30.16,North,0,0.0,0.0,58,0.00,,,0.01,WUHU216HW,2013-03-31 03:15:00,
2013-03-30 23:20:00,53.6,39.3,30.16,North,0,0.0,0.0,58,0.00,,,0.01,WUHU216HW,2013-03-31 03:20:00,
2013-03-30 23:25:00,53.8,38.9,30.16,North,0,0.0,0.0,57,0.00,,,0.01,WUHU216HW,2013-03-31 03:25:00,
2013-03-30 23:31:00,53.8,38.9,30.16,North,0,0.0,0.0,57,0.00,,,0.01,WUHU216HW,2013-03-31 03:31:00,
2013-03-30 23:36:00,53.8,38.9,30.16,North,0,0.0,0.0,57,0.00,,,0.01,WUHU216HW,2013-03-31 03:36:00,
2013-03-30 23:41:00,53.8,38.9,30.16,North,0,0.0,0.0,57,0.00,,,0.01,WUHU216HW,2013-03-31 03:41:00,